Location: Apalco
(33.3585°N, 93.4602°W)
Time: 23:46:24
(UTC+00:00)

Envisat - Visible Passes

Search period start: 28 September 2021 00:00
Search period end: 08 October 2021 00:00
Orbit: 764 x 766 km, 98.2° (Epoch: 28 September)

Date Brightness Start Highest point End Pass type
(mag) Time Alt. Az. Time Alt. Az. Time Alt. Az.
28 Sep 5.2 10:32:24 10° NE 10:36:40 27° E 10:40:54 10° SSE visible
29 Sep 6.2 09:58:32 10° E 09:59:32 10° E 10:00:31 10° ESE visible
29 Sep 3.0 11:33:52 10° N 11:38:55 68° WNW 11:43:56 10° SSW visible
30 Sep 4.0 10:57:09 10° NNE 11:02:05 50° E 11:06:59 10° S visible
01 Oct 5.6 10:21:20 10° NE 10:25:05 21° E 10:28:49 10° SE visible
02 Oct 3.0 11:22:20 10° NNE 11:27:26 88° WNW 11:32:30 10° SSW visible
03 Oct 4.5 10:45:50 10° NNE 10:50:32 38° E 10:55:14 10° SSE visible
04 Oct 5.9 10:10:28 10° ENE 10:13:29 16° E 10:16:29 10° SE visible
05 Oct 3.3 11:10:50 10° NNE 11:15:55 72° ESE 11:20:59 10° S visible
06 Oct 5.0 10:34:35 10° NE 10:38:59 29° E 10:43:21 10° SSE visible
07 Oct 6.1 10:00:07 10° ENE 10:01:52 12° E 10:03:37 10° ESE visible
07 Oct 3.0 11:36:12 10° N 11:41:12 62° WNW 11:46:12 10° SSW visible
